Millville, NJ

6:09 AM EST on December 12, 2019 (GMT -0500)
Millville Municipal

Weather History for KMIV - October, 2019

Change the Weather History Date:

Tuesday, October 8, 2019

  Actual Average Record
Temperature  
Mean Temperature 62 °F -  
Max Temperature 64 °F 68 °F 88 °F (2007)
Min Temperature 59 °F 46 °F 28 °F (2001)
Degree Days  
Heating Degree Days 4    
Growing Degree Days 12 (Base 50)    
Moisture  
Dew Point 51 °F    
Average Humidity 68    
Maximum Humidity 83    
Minimum Humidity 50    
Precipitation  
Precipitation 0.00 in - - ()
Sea Level Pressure  
Sea Level Pressure 30.17 in    
Wind  
Wind Speed 12 mph (NNE)    
Max Wind Speed 17 mph    
Max Gust Speed 24 mph    
Visibility 10 miles    
Events      
Averages and records for this station are not official NWS values.
T = Trace of Precipitation, MM = Missing Value Source: NWS Daily Summary

Daily Weather History Graph

Daily Weather History Graph

Search for Another Location

Airport or City:

Astronomy

Oct. 08, 2019 Rise Set
Actual Time 7:02 AM EDT 6:32 PM EDT
Civil Twilight 6:36 AM EDT 6:59 PM EDT
Nautical Twilight 6:04 AM EDT 7:30 PM EDT
Astronomical Twilight 5:33 AM EDT 8:01 PM EDT
Moon 4:27 PM EDT (10/8) 1:52 AM EDT (10/8)
Length of Visible Light 12h 22m
Length of Day
11h 29m
Waxing Gibbous, 77% of the Moon is Illuminated
Oct 8
Waxing Gibbous
Oct 13
Full
Oct 21
Last Quarter
Oct 27
New
Nov 4
First Quarter

Hourly Weather History & Observations

Time (EDT) Temp. Dew Point Humidity Pressure Visibility Wind Dir Wind Speed Gust Speed Precip Events Conditions
12:12 AM 64.0 °F 57.9 °F 80% 30.15 in 10.0 mi North 13.8 mph 24.2 mph N/A   Overcast
12:54 AM 63.0 °F 55.9 °F 78% 30.15 in 10.0 mi NNE 8.1 mph - N/A   Overcast
1:54 AM 62.1 °F 55.0 °F 78% 30.16 in 10.0 mi NNE 15.0 mph - N/A   Mostly Cloudy
2:54 AM 62.1 °F 54.0 °F 75% 30.14 in 10.0 mi NE 10.4 mph - N/A   Mostly Cloudy
3:54 AM 61.0 °F 55.0 °F 81% 30.15 in 10.0 mi NNE 9.2 mph - N/A   Overcast
4:54 AM 61.0 °F 55.0 °F 81% 30.16 in 10.0 mi NNE 11.5 mph - N/A   Overcast
5:54 AM 61.0 °F 55.0 °F 81% 30.18 in 10.0 mi NNE 10.4 mph 23.0 mph N/A   Overcast
6:06 AM 61.0 °F 55.0 °F 81% 30.18 in 10.0 mi NNE 15.0 mph 21.9 mph N/A   Overcast
6:54 AM 61.0 °F 55.9 °F 83% 30.18 in 10.0 mi NNE 15.0 mph 20.7 mph N/A   Overcast
7:13 AM 61.0 °F 55.9 °F 83% 30.19 in 10.0 mi NNE 12.7 mph - N/A   Overcast
7:54 AM 61.0 °F 55.9 °F 83% 30.18 in 10.0 mi NE 12.7 mph 21.9 mph N/A   Overcast
8:38 AM 61.0 °F 54.0 °F 78% 30.19 in 10.0 mi NNE 10.4 mph - N/A   Scattered Clouds
8:54 AM 61.0 °F 53.1 °F 75% 30.19 in 10.0 mi NE 12.7 mph 18.4 mph N/A   Clear
9:54 AM 62.1 °F 51.1 °F 67% 30.20 in 10.0 mi NE 16.1 mph 24.2 mph N/A   Partly Cloudy
10:54 AM 62.1 °F 51.1 °F 67% 30.20 in 10.0 mi NE 16.1 mph 19.6 mph N/A   Mostly Cloudy
11:54 AM 63.0 °F 48.9 °F 60% 30.19 in 10.0 mi ENE 16.1 mph - N/A   Clear
12:54 PM 64.0 °F 46.9 °F 54% 30.18 in 10.0 mi NNE 13.8 mph 23.0 mph N/A   Clear
1:54 PM 64.0 °F 48.0 °F 56% 30.17 in 10.0 mi NNE 17.3 mph 24.2 mph N/A   Clear
2:54 PM 64.9 °F 48.0 °F 54% 30.14 in 10.0 mi NNE 13.8 mph 23.0 mph N/A   Clear
3:54 PM 64.9 °F 46.0 °F 50% 30.14 in 10.0 mi NNE 13.8 mph - N/A   Clear
4:54 PM 64.0 °F 45.0 °F 50% 30.15 in 10.0 mi NNE 15.0 mph 20.7 mph N/A   Partly Cloudy
5:54 PM 63.0 °F 46.9 °F 56% 30.16 in 10.0 mi NNE 12.7 mph - N/A   Clear
6:54 PM 61.0 °F 46.9 °F 60% 30.16 in 10.0 mi NNE 9.2 mph - N/A   Clear
7:54 PM 60.1 °F 46.9 °F 62% 30.16 in 10.0 mi NNE 9.2 mph - N/A   Clear
8:54 PM 59.0 °F 46.9 °F 64% 30.17 in 10.0 mi North 6.9 mph - N/A   Partly Cloudy
9:54 PM 59.0 °F 46.9 °F 64% 30.17 in 10.0 mi NNE 8.1 mph - N/A   Overcast
10:31 PM 60.1 °F 46.0 °F 60% 30.17 in 10.0 mi NNE 10.4 mph - N/A   Overcast
10:54 PM 60.1 °F 46.0 °F 60% 30.17 in 10.0 mi NNE 11.5 mph - N/A   Overcast
11:17 PM 60.1 °F 46.0 °F 60% 30.18 in 10.0 mi NNE 9.2 mph 19.6 mph N/A   Overcast
11:54 PM 60.1 °F 46.9 °F 62% 30.17 in 10.0 mi NNE 11.5 mph - N/A   Overcast